| time (UTC) | temp F | wind direction | speed knots | gust knots | rain 1hr in | rain 24hr in | rain mn in | humidity % | barometer mb |
| 20260505052331 | 57 | 30 | 7.0 | 7.8 | 0.00 | 0.00 | 0.00 | 51 | 1008.2 |
| 20260505051828 | 57 | 11 | 10.4 | 13.9 | 0.00 | 0.00 | 0.00 | 50 | 1008.3 |
| 20260505051326 | 57 | 42 | 10.4 | 14.8 | 0.00 | 0.00 | 0.00 | 50 | 1008.1 |
| 20260505050824 | 57 | 28 | 7.8 | 9.6 | 0.00 | 0.00 | 0.00 | 49 | 1008.3 |
| 20260505050323 | 58 | 14 | 7.8 | 9.6 | 0.00 | 0.00 | 0.00 | 49 | 1008.1 |
| 20260505041752 | 61 | 43 | 7.0 | 7.8 | 0.00 | 0.00 | 0.00 | 40 | 1007.7 |
| 20260505041249 | 61 | 42 | 6.1 | 7.8 | 0.00 | 0.00 | 0.00 | 39 | 1007.4 |
| 20260505040746 | 62 | 40 | 5.2 | 8.7 | 0.00 | 0.00 | 0.00 | 39 | 1007.4 |
| 20260505040244 | 62 | 41 | 7.0 | 8.7 | 0.00 | 0.00 | 0.00 | 39 | 1007.4 |
| 20260505035741 | 61 | 36 | 6.1 | 7.8 | 0.00 | 0.00 | 0.00 | 40 | 1007.1 |
| 20260505035236 | 60 | 68 | 5.2 | 7.0 | 0.00 | 0.00 | 0.00 | 41 | 1007.3 |
| 20260505034734 | 61 | 70 | 2.6 | 4.3 | 0.00 | 0.00 | 0.00 | 42 | 1007.5 |
| 20260505034230 | 61 | 94 | 4.3 | 6.1 | 0.00 | 0.00 | 0.00 | 41 | 1007.3 |
| 20260505033727 | 62 | 62 | 2.6 | 2.6 | 0.00 | 0.00 | 0.00 | 41 | 1007.3 |
| 20260505033225 | 62 | 67 | 1.7 | 2.6 | 0.00 | 0.00 | 0.00 | 39 | 1007.3 |
| 20260505032723 | 62 | 28 | 5.2 | 7.8 | 0.00 | 0.00 | 0.00 | 39 | 1007.1 |
| 20260505032218 | 62 | 25 | 4.3 | 6.1 | 0.00 | 0.00 | 0.00 | 42 | 1007.2 |
| 20260505031716 | 61 | 45 | 5.2 | 7.8 | 0.00 | 0.00 | 0.00 | 43 | 1007.2 |
| 20260505031212 | 60 | 36 | 5.2 | 6.1 | 0.00 | 0.00 | 0.00 | 48 | 1006.8 |
| 20260505030709 | 59 | 42 | 2.6 | 2.6 | 0.00 | 0.00 | 0.00 | 53 | 1006.9 |
| 20260505030205 | 58 | 29 | 4.3 | 5.2 | 0.00 | 0.00 | 0.00 | 56 | 1006.7 |
| 20260505025701 | 58 | 152 | 0.9 | 0.9 | 0.00 | 0.00 | 0.00 | 56 | 1006.5 |
| 20260505025200 | 58 | 156 | 0.9 | 1.7 | 0.00 | 0.00 | 0.00 | 58 | 1006.4 |
| 20260505024657 | 59 | 156 | 0.0 | 0.0 | 0.00 | 0.00 | 0.00 | 55 | 1006.6 |
| 20260505024154 | 60 | 156 | 0.0 | 0.9 | 0.00 | 0.00 | 0.00 | 52 | 1006.4 |
| 20260505023651 | 60 | 156 | 0.0 | 0.0 | 0.00 | 0.00 | 0.00 | 48 | 1006.0 |
| 20260505023149 | 61 | 156 | 0.0 | 0.0 | 0.00 | 0.00 | 0.00 | 50 | 1006.3 |
| 20260505022646 | 62 | 156 | 0.0 | 0.0 | 0.00 | 0.00 | 0.00 | 48 | 1005.9 |
| 20260505022143 | 62 | 205 | 1.7 | 1.7 | 0.00 | 0.00 | 0.00 | 46 | 1005.9 |
| 20260505021639 | 63 | 235 | 0.0 | 0.0 | 0.00 | 0.00 | 0.00 | 46 | 1005.9 |
| 20260505021136 | 63 | 192 | 0.0 | 0.0 | 0.00 | 0.00 | 0.00 | 47 | 1005.9 |
| 20260505020632 | 64 | 192 | 0.0 | 0.0 | 0.00 | 0.00 | 0.00 | 45 | 1005.9 |
| 20260505020128 | 65 | 192 | 0.9 | 1.7 | 0.00 | 0.00 | 0.00 | 43 | 1005.9 |
| 20260505015625 | 65 | 194 | 1.7 | 2.6 | 0.00 | 0.00 | 0.00 | 42 | 1005.7 |
| 20260505015122 | 66 | 200 | 0.0 | 0.0 | 0.00 | 0.00 | 0.00 | 42 | 1005.9 |
| 20260505014619 | 66 | 213 | 0.9 | 0.9 | 0.00 | 0.00 | 0.00 | 44 | 1006.0 |
| 20260505014116 | 66 | 216 | 2.6 | 2.6 | 0.00 | 0.00 | 0.00 | 43 | 1006.0 |
| 20260505013613 | 66 | 213 | 1.7 | 1.7 | 0.00 | 0.00 | 0.00 | 45 | 1005.9 |
| 20260505013110 | 66 | 207 | 2.6 | 2.6 | 0.00 | 0.00 | 0.00 | 43 | 1005.9 |
| 20260505012609 | 68 | 208 | 2.6 | 2.6 | 0.00 | 0.00 | 0.00 | 44 | 1006.3 |
| 20260505012105 | 68 | 209 | 2.6 | 2.6 | 0.00 | 0.00 | 0.00 | 41 | 1006.1 |
| 20260505011600 | 68 | 214 | 3.5 | 4.3 | 0.00 | 0.00 | 0.00 | 37 | 1006.4 |
| 20260505011058 | 67 | 215 | 4.3 | 5.2 | 0.00 | 0.00 | 0.00 | 38 | 1006.3 |
| 20260505010553 | 67 | 196 | 7.0 | 8.7 | 0.00 | 0.00 | 0.00 | 41 | 1006.0 |
| 20260505010050 | 67 | 193 | 0.9 | 4.3 | 0.00 | 0.00 | 0.00 | 38 | 1006.5 |
| 20260505005546 | 66 | 103 | 2.6 | 2.6 | 0.00 | 0.00 | 0.00 | 39 | 1006.7 |
| 20260505005044 | 66 | 344 | 7.8 | 9.6 | 0.00 | 0.00 | 0.00 | 41 | 1006.9 |
| 20260505004541 | 65 | 264 | 1.7 | 1.7 | 0.00 | 0.00 | 0.00 | 43 | 1006.8 |
| 20260505004038 | 63 | 0 | 7.0 | 11.3 | 0.00 | 0.00 | 0.00 | 44 | 1007.2 |
| 20260505003535 | 64 | 299 | 11.3 | 19.1 | 0.00 | 0.00 | 0.00 | 45 | 1006.6 |
| 20260505003032 | 65 | 318 | 13.9 | 17.4 | 0.00 | 0.00 | 0.00 | 44 | 1006.6 |
| 20260505002526 | 66 | 322 | 7.8 | 11.3 | 0.00 | 0.00 | 0.00 | 41 | 1006.6 |
| 20260505002026 | 67 | 11 | 8.7 | 9.6 | 0.00 | 0.00 | 0.00 | 38 | 1006.6 |
| 20260505001523 | 68 | 46 | 5.2 | 7.0 | 0.00 | 0.00 | 0.00 | 39 | 1006.0 |
| 20260505001020 | 69 | 42 | 5.2 | 6.1 | 0.00 | 0.00 | 0.00 | 36 | 1006.3 |
| 20260505000517 | 69 | 73 | 3.5 | 5.2 | 0.00 | 0.00 | 0.00 | 35 | 1005.8 |
| 20260505000015 | 70 | 325 | 5.2 | 7.8 | 0.00 | 0.00 | 0.00 | 34 | 1005.7 |
| 20260504235511 | 71 | 254 | 0.0 | 0.0 | 0.00 | 0.00 | 0.00 | 34 | 1005.4 |
| 20260504235007 | 72 | 239 | 0.0 | 0.0 | 0.00 | 0.00 | 0.00 | 31 | 1005.2 |
| 20260504234505 | 72 | 231 | 0.0 | 0.0 | 0.00 | 0.00 | 0.00 | 29 | 1005.3 |
| 20260504234002 | 72 | 246 | 0.0 | 0.0 | 0.00 | 0.00 | 0.00 | 31 | 1005.3 |
| 20260504233457 | 73 | 253 | 0.0 | 0.0 | 0.00 | 0.00 | 0.00 | 29 | 1005.3 |
| 20260504232954 | 73 | 254 | 0.9 | 0.9 | 0.00 | 0.00 | 0.00 | 29 | 1005.4 |
| 20260504232451 | 75 | 309 | 4.3 | 5.2 | 0.00 | 0.00 | 0.00 | 30 | 1005.3 |
| 20260504231949 | 74 | 255 | 0.9 | 0.9 | 0.00 | 0.00 | 0.00 | 29 | 1005.2 |
| 20260504231445 | 75 | 321 | 0.9 | 1.7 | 0.00 | 0.00 | 0.00 | 26 | 1005.4 |
| 20260504230941 | 73 | 240 | 0.0 | 0.0 | 0.00 | 0.00 | 0.00 | 28 | 1005.8 |
| 20260504230438 | 73 | 134 | 2.6 | 2.6 | 0.00 | 0.00 | 0.00 | 28 | 1005.7 |
| 20260504225937 | 74 | 313 | 3.5 | 4.3 | 0.00 | 0.00 | 0.00 | 30 | 1005.4 |
| 20260504225433 | 74 | 20 | 2.6 | 2.6 | 0.00 | 0.00 | 0.00 | 29 | 1005.6 |
| 20260504224931 | 74 | 282 | 2.6 | 2.6 | 0.00 | 0.00 | 0.00 | 26 | 1005.6 |
| 20260504224427 | 75 | 246 | 2.6 | 4.3 | 0.00 | 0.00 | 0.00 | 26 | 1005.7 |
| 20260504223924 | 74 | 253 | 0.0 | 0.0 | 0.00 | 0.00 | 0.00 | 29 | 1006.1 |
| 20260504223420 | 74 | 11 | 2.6 | 2.6 | 0.00 | 0.00 | 0.00 | 30 | 1005.9 |
| 20260504222916 | 74 | 307 | 2.6 | 4.3 | 0.00 | 0.00 | 0.00 | 29 | 1005.9 |
| 20260504222413 | 74 | 304 | 4.3 | 5.2 | 0.00 | 0.00 | 0.00 | 29 | 1006.3 |
| 20260504221911 | 74 | 313 | 3.5 | 4.3 | 0.00 | 0.00 | 0.00 | 28 | 1006.0 |
| 20260504221408 | 75 | 23 | 3.5 | 5.2 | 0.00 | 0.00 | 0.00 | 30 | 1006.0 |
| 20260504220905 | 75 | 49 | 0.0 | 0.9 | 0.00 | 0.00 | 0.00 | 27 | 1006.0 |
| 20260504220401 | 75 | 262 | 0.0 | 0.0 | 0.00 | 0.00 | 0.00 | 27 | 1006.1 |
| 20260504215859 | 74 | 223 | 0.0 | 0.0 | 0.00 | 0.00 | 0.00 | 28 | 1006.4 |
| 20260504215355 | 75 | 299 | 4.3 | 5.2 | 0.00 | 0.00 | 0.00 | 28 | 1006.5 |
| 20260504214852 | 75 | 228 | 3.5 | 4.3 | 0.00 | 0.00 | 0.00 | 28 | 1006.5 |
| 20260504214348 | 75 | 272 | 3.5 | 4.3 | 0.00 | 0.00 | 0.00 | 28 | 1006.5 |
| 20260504213845 | 75 | 238 | 0.9 | 1.7 | 0.00 | 0.00 | 0.00 | 28 | 1006.7 |
| 20260504213341 | 75 | 314 | 2.6 | 4.3 | 0.00 | 0.00 | 0.00 | 28 | 1006.5 |
| 20260504212838 | 74 | 340 | 3.5 | 4.3 | 0.00 | 0.00 | 0.00 | 30 | 1006.8 |
| 20260504212334 | 74 | 39 | 3.5 | 4.3 | 0.00 | 0.00 | 0.00 | 30 | 1006.8 |
| 20260504211832 | 75 | 350 | 1.7 | 1.7 | 0.00 | 0.00 | 0.00 | 29 | 1007.1 |
| 20260504211328 | 74 | 243 | 1.7 | 1.7 | 0.00 | 0.00 | 0.00 | 28 | 1006.9 |
| 20260504210826 | 75 | 219 | 2.6 | 2.6 | 0.00 | 0.00 | 0.00 | 28 | 1006.8 |
| 20260504210323 | 75 | 255 | 0.9 | 0.9 | 0.00 | 0.00 | 0.00 | 29 | 1007.1 |
| 20260504205820 | 76 | 255 | 0.9 | 0.9 | 0.00 | 0.00 | 0.00 | 29 | 1007.1 |
| 20260504205318 | 74 | 216 | 0.0 | 0.9 | 0.00 | 0.00 | 0.00 | 30 | 1007.2 |
| 20260504204815 | 74 | 251 | 0.0 | 0.9 | 0.00 | 0.00 | 0.00 | 28 | 1007.4 |
| 20260504204314 | 73 | 223 | 1.7 | 1.7 | 0.00 | 0.00 | 0.00 | 30 | 1007.4 |
| 20260504203813 | 73 | 224 | 1.7 | 1.7 | 0.00 | 0.00 | 0.00 | 29 | 1007.3 |
| 20260504203309 | 73 | 228 | 2.6 | 4.3 | 0.00 | 0.00 | 0.00 | 29 | 1007.5 |
| 20260504202804 | 73 | 256 | 0.9 | 1.7 | 0.00 | 0.00 | 0.00 | 30 | 1007.3 |
| 20260504202304 | 73 | 242 | 0.0 | 0.0 | 0.00 | 0.00 | 0.00 | 30 | 1007.4 |
| 20260504201759 | 73 | 306 | 0.9 | 1.7 | 0.00 | 0.00 | 0.00 | 32 | 1007.5 |
| 20260504201256 | 72 | 278 | 0.9 | 1.7 | 0.00 | 0.00 | 0.00 | 33 | 1007.9 |
| 20260504200754 | 73 | 289 | 2.6 | 2.6 | 0.00 | 0.00 | 0.00 | 32 | 1007.5 |
| 20260504200249 | 73 | 212 | 0.9 | 1.7 | 0.00 | 0.00 | 0.00 | 30 | 1007.7 |
| 20260504195746 | 72 | 226 | 2.6 | 2.6 | 0.00 | 0.00 | 0.00 | 29 | 1007.9 |
| 20260504195242 | 73 | 342 | 2.6 | 4.3 | 0.00 | 0.00 | 0.00 | 30 | 1008.0 |
| 20260504194739 | 73 | 278 | 2.6 | 4.3 | 0.00 | 0.00 | 0.00 | 31 | 1008.0 |
| 20260504194235 | 72 | 202 | 1.7 | 1.7 | 0.00 | 0.00 | 0.00 | 32 | 1008.1 |
| 20260504193732 | 72 | 243 | 2.6 | 2.6 | 0.00 | 0.00 | 0.00 | 33 | 1008.1 |
| 20260504193229 | 72 | 236 | 4.3 | 5.2 | 0.00 | 0.00 | 0.00 | 32 | 1008.0 |
| 20260504192728 | 72 | 254 | 1.7 | 1.7 | 0.00 | 0.00 | 0.00 | 34 | 1008.1 |
| 20260504192225 | 72 | 221 | 0.9 | 1.7 | 0.00 | 0.00 | 0.00 | 31 | 1008.4 |
| 20260504191724 | 71 | 273 | 1.7 | 1.7 | 0.00 | 0.00 | 0.00 | 32 | 1008.4 |
| 20260504191220 | 72 | 274 | 0.9 | 2.6 | 0.00 | 0.00 | 0.00 | 31 | 1008.3 |
| 20260504190715 | 70 | 261 | 0.9 | 1.7 | 0.00 | 0.00 | 0.00 | 35 | 1008.9 |
| 20260504190212 | 70 | 228 | 2.6 | 4.3 | 0.00 | 0.00 | 0.00 | 34 | 1008.7 |
| 20260504185709 | 70 | 255 | 0.9 | 1.7 | 0.00 | 0.00 | 0.00 | 36 | 1008.7 |
| 20260504185205 | 70 | 228 | 0.9 | 1.7 | 0.00 | 0.00 | 0.00 | 34 | 1008.5 |
| 20260504184702 | 71 | 203 | 3.5 | 4.3 | 0.00 | 0.00 | 0.00 | 34 | 1008.7 |
| 20260504184157 | 70 | 276 | 0.9 | 1.7 | 0.00 | 0.00 | 0.00 | 36 | 1008.8 |
| 20260504183654 | 69 | 307 | 4.3 | 5.2 | 0.00 | 0.00 | 0.00 | 36 | 1008.9 |
| 20260504183151 | 69 | 220 | 4.3 | 5.2 | 0.00 | 0.00 | 0.00 | 36 | 1008.9 |
| 20260504182649 | 68 | 220 | 0.0 | 0.0 | 0.00 | 0.00 | 0.00 | 35 | 1009.2 |
| 20260504182146 | 69 | 201 | 2.6 | 2.6 | 0.00 | 0.00 | 0.00 | 35 | 1009.1 |
| 20260504181644 | 69 | 213 | 0.9 | 0.9 | 0.00 | 0.00 | 0.00 | 35 | 1009.2 |
| 20260504181141 | 69 | 225 | 2.6 | 4.3 | 0.00 | 0.00 | 0.00 | 37 | 1009.2 |
| 20260504180640 | 68 | 197 | 2.6 | 4.3 | 0.00 | 0.00 | 0.00 | 36 | 1009.1 |
| 20260504180138 | 68 | 210 | 0.0 | 0.0 | 0.00 | 0.00 | 0.00 | 36 | 1009.5 |
| 20260504175635 | 68 | 236 | 2.6 | 2.6 | 0.00 | 0.00 | 0.00 | 37 | 1009.4 |
| 20260504175131 | 66 | 198 | 2.6 | 2.6 | 0.00 | 0.00 | 0.00 | 40 | 1009.2 |
| 20260504174630 | 67 | 211 | 3.5 | 5.2 | 0.00 | 0.00 | 0.00 | 37 | 1009.4 |
| 20260504174126 | 67 | 244 | 0.9 | 1.7 | 0.00 | 0.00 | 0.00 | 37 | 1009.5 |
| 20260504173624 | 66 | 256 | 0.0 | 0.9 | 0.00 | 0.00 | 0.00 | 42 | 1009.5 |
| 20260504173121 | 68 | 261 | 1.7 | 1.7 | 0.00 | 0.00 | 0.00 | 38 | 1009.6 |
| 20260504172617 | 67 | 248 | 1.7 | 1.7 | 0.00 | 0.00 | 0.00 | 40 | 1009.7 |
| 20260504172114 | 67 | 286 | 3.5 | 4.3 | 0.00 | 0.00 | 0.00 | 37 | 1009.5 |
| 20260504171610 | 66 | 268 | 2.6 | 2.6 | 0.00 | 0.00 | 0.00 | 40 | 1009.5 |
| 20260504171108 | 65 | 261 | 0.9 | 0.9 | 0.00 | 0.00 | 0.00 | 40 | 1009.7 |
| 20260504170603 | 66 | 256 | 1.7 | 2.6 | 0.00 | 0.00 | 0.00 | 41 | 1009.7 |
| 20260504150947 | 53 | 299 | 0.9 | 0.9 | 0.00 | 0.00 | 0.00 | 60 | 1009.9 |
| 20260504150444 | 53 | 296 | 0.9 | 0.9 | 0.00 | 0.00 | 0.00 | 60 | 1009.8 |
| 20260504140910 | 46 | 319 | 0.0 | 0.0 | 0.00 | 0.00 | 0.00 | 71 | 1010.0 |
| 20260504140406 | 45 | 319 | 0.0 | 0.0 | 0.00 | 0.00 | 0.00 | 73 | 1009.7 |
| 20260504130331 | 37 | 238 | 0.0 | 0.0 | 0.00 | 0.00 | 0.00 | 89 | 1009.9 |
| 20260504120254 | 37 | 218 | 0.0 | 0.0 | 0.00 | 0.00 | 0.00 | 84 | 1009.6 |
| 20260504110218 | 39 | 257 | 0.0 | 0.0 | 0.00 | 0.00 | 0.00 | 81 | 1009.8 |
| 20260504100142 | 41 | 247 | 0.0 | 0.0 | 0.00 | 0.00 | 0.00 | 76 | 1009.6 |
| 20260504090105 | 44 | 197 | 0.0 | 0.9 | 0.00 | 0.00 | 0.00 | 70 | 1009.6 |
| 20260504081535 | 46 | 295 | 1.7 | 1.7 | 0.00 | 0.00 | 0.00 | 67 | 1009.7 |
| 20260504081031 | 44 | 293 | 1.7 | 2.6 | 0.00 | 0.00 | 0.00 | 69 | 1009.6 |
| 20260504080527 | 44 | 304 | 1.7 | 1.7 | 0.00 | 0.00 | 0.00 | 70 | 1009.7 |